Regional Weather Roundup
Issued by NWS Newport/Morehead, NC

Current Version | Previous Version | Graphics & Text | Print | Product List | Glossary Off
Versions: 1 2 3 4 5 6 7 8 9 10 11 12 13 14 15 16 17 18 19 20 21 22 23 24 25 26 27 28 29 30 31 32 33 34 35 36 37 38 39 40 41 42 43 44 45 46 47 48 49 50

408
ASUS42 KMHX 271413
RWRMHX
WEATHER ROUNDUP FOR EASTERN NORTH CAROLINA
NATIONAL WEATHER SERVICE NEWPORT/MOREHEAD CITY NC
1000 AM EDT WED JUL 27 2016

NOTE: "FAIR" INDICATES FEW OR NO CLOUDS BELOW 12,000 FEET
WITH NO SIGNIFICANT WEATHER AND/OR OBSTRUCTIONS TO VISIBILITY

NCZ015>017-031-032-045>047-102-103-271500-
NORTH COAST

CITY           SKY/WX    TMP DP  RH WIND       PRES   REMARKS
EDENTON        PTSUNNY   86  74  65 W6        29.97F
ELIZABETH CITY MOSUNNY   85  75  72 W8        29.95F
KITTY HAWK     SUNNY     89  79  71 CALM      29.94F HX 104
MANTEO           N/A     83  79  86 SW5       29.95F

$$

NCZ045>047-081-094-103-104-271500-
CENTRAL COAST

CITY           SKY/WX    TMP DP  RH WIND       PRES   REMARKS
FRISCO         SUNNY     84  77  79 SW7       29.96F

$$

NCZ095-097-098-100-101-271500-
SOUTHERN COAST

CITY           SKY/WX    TMP DP  RH WIND       PRES   REMARKS
BEAUFORT       SUNNY     86  77  74 W10       29.97F
CEDAR ISLAND   NOT AVBL
JACKSONVILLE   PTSUNNY   86  74  67 W9        29.98F
PINEY ISLAND   NOT AVBL
WILMINGTON     SUNNY     88  75  65 W12       30.00S


$$

NCZ011>013-027>030-043-044-078>080-089-090>093-098-271500-
COASTAL PLAIN

CITY           SKY/WX    TMP DP  RH WIND       PRES   REMARKS
AHOSKIE        SUNNY     81  75  82 CALM      29.97F
CLINTON        SUNNY     85  76  73 W8        30.00S
ELIZABETHTOWN  SUNNY     87  74  66 W8        30.00F
GOLDSBORO      MOSUNNY   86  77  74 W8        29.96F
GREENVILLE     SUNNY     86  79  79 W5        29.99S
HAVELOCK       MOSUNNY   86  76  71 W7        29.99S
KENANSVILLE    NOT AVBL
KINSTON        SUNNY     86  75  70 W5        29.99S
NEW BERN       MOSUNNY   85  75  72 W8        29.98F
RICHLANDS      PTSUNNY   85  77  77 W5        29.99F
ROCKY MOUNT    MOSUNNY   85  79  82 VRB6      29.98S
WASHINGTON     SUNNY     86  78  76 W3        29.97F
WHITEVILLE     SUNNY     85  75  70 W6        30.01S

$$

AMZ130-135-150-152-154-156-158-170-250-252-270-ANZ085-086-088-633-658-670-271500-
MARINE OBSERVATIONS

STATION/POSITION TIME  TEMP    WIND        PRES    WAVE   SWELL
                       AIR SEA DIR/SP/G            HT/PER HT/PER
                 (UTC) (F)     (DEG/KT/KT) (MB)    (FT/S) (FT/S)
CHESAPEAKE LIGHT NOT AVBL
64 E VA BEACH    1350   81 80  120/  6/  8 1014.2    2/ 6   2/ 6
DUCK             1300   83 63  230/  7/  9 1013.8
2 E DUCK         1311      70                N/A     1/ 6
OREGON INLET     1300   83 85  240/  5/  7 1014.6
13E OREGON INLT  1400      81                N/A     2/ 5   2/ 5
HATTERAS CG      1300   83 83  240/  7/  9 1014.8
DIAMOND BUOY     1350   84 84  260/ 14/ 17 1014.5    4/ 5   2/ 8
CAPE LOOKOUT     1400   85     260/ 12/ 17 1014.9
BEAUFORT LAB     1300   84 82  260/  6/ 11 1014.9
30 SE NEW RVR IN 1308   85 84  250/ 14/ 17 1016.1
30 SE NEW RVR IN 1325      84                N/A     4/ 6
27 SE WRIGHTSVLE 1308   84 84  240/ 14/ 17 1016.3
5 SE WRIGHTSVLE  NOT AVBL
225 S CAPE HAT   1350   84 84  280/ 12/ 14 1017.6    3/ 5   2/ 8
41 SE CHARLESTON 1350   85 86  270/ 12/ 14 1017.1    4/ 5   2/ 6

$$




USA.gov is the U.S. government's official web portal to all federal, state and local government web resources and services.